[[{"header":{"parameterUnit":"m.s-1","parameterCategory":1,"la1":30.2991,"la2":30.254,"lo1":-89.0895,"lo2":-89.0444,"dy":0.0017,"dx":0.0017,"nx":28,"ny":28,"refTime":"2023-08-20T21:00:00:Z","depth":0,"parameterNumber":2,"parameterNumberName":"U-component_of_WINDS"},"data":[0,0,0,0,0,0,0,0,0,0,0,0,0,0,0,0,0,0,0,0,0,0,0,0,0,0,0,0,0,0,0,0,0,0,0,0,0,0,0,0,0,0,0,0,0,0,0,0,0,0,0,0,0,0,0,0,0,0,-4.2454,-4.2454,0,-4.2429,-4.2428,-4.2428,-4.2331,-4.2328,-4.2326,-4.2324,-4.23,-4.2301,-4.2302,0,0,0,0,0,0,0,0,0,0,0,0,0,-4.2421,-4.2423,-4.2454,-4.2454,-4.2454,-4.2429,-4.2428,-4.2428,-4.2331,-4.2328,-4.2326,-4.2323,-4.2299,-4.2301,-4.2303,0,0,0,0,0,0,0,0,0,0,0,0,0,-4.242,-4.2423,-4.2454,-4.2402,-4.2397,-4.2429,-4.2428,-4.2428,-4.2332,-4.2328,-4.2325,-4.2322,-4.2299,-4.2301,-4.2303,-4.2383,0,0,-4.2309,-4.231,0,0,0,0,0,0,0,0,-4.242,-4.2421,-4.241,-4.2406,-4.24,-4.2379,-4.2408,-4.2413,-4.2332,-4.2357,-4.2324,-4.232,-4.2329,-4.2328,-4.2331,-4.2382,-4.2381,-4.231,-4.2311,-4.2312,-4.2312,0,0,0,0,0,0,0,-4.242,-4.2422,-4.2444,-4.241,-4.2404,-4.2381,-4.2377,-4.2408,-4.2362,-4.2354,-4.2347,-4.2345,-4.2326,-4.2329,-4.233,-4.2381,-4.2309,-4.2311,-4.2313,-4.2314,-4.2497,-4.25,0,0,0,0,0,0,-4.2428,-4.2422,-4.2445,-4.2443,-4.2402,-4.2384,-4.238,-4.239,-4.2361,-4.2354,-4.2348,-4.2341,-4.2327,-4.2327,-4.2329,-4.242,-4.2312,-4.2314,-4.2315,-4.2493,-4.2497,-4.2501,0,0,0,0,0,0,-4.2427,-4.243,-4.2446,-4.2431,-4.2431,-4.2388,-4.24,-4.2391,-4.2394,-4.2357,-4.2348,-4.236,-4.2325,-4.2325,-4.237,-4.2418,-4.2315,-4.2317,-4.2489,-4.2494,-4.2499,-4.2604,0,0,0,0,0,0,-4.2427,-4.2431,-4.246,-4.2432,-4.2432,-4.2488,-4.2403,-4.2393,-4.2398,-4.2388,-4.2366,-4.2359,-4.2322,-4.2368,-4.2372,-4.2419,-4.2318,-4.2484,-4.2491,-4.2498,-4.2596,-4.2613,-4.2626,0,0,0,0,0,-4.2426,-4.2491,-4.2462,-4.2465,-4.2468,-4.249,-4.249,-4.2446,-4.2402,-4.2432,-4.2408,-4.2359,-4.2413,-4.2373,-4.2378,-4.2425,-4.2481,-4.2489,-4.2497,-4.259,-4.2609,-4.2626,0,0,0,0,0,0,-4.2525,-4.2486,-4.2454,-4.2512,-4.2505,-4.2474,-4.2509,-4.2469,-4.2475,-4.2465,-4.2411,-4.2407,-4.246,-4.2447,-4.2404,-4.2502,-4.2439,-4.2448,-4.2507,-4.2526,-4.2541,-4.2542,-4.232,0,0,0,0,0,-4.2554,-4.2575,-4.254,-4.2595,-4.2593,-4.2553,-4.2561,-4.2527,-4.2518,-4.2515,-4.2495,-4.2488,-4.2503,-4.2514,-4.2526,-4.2595,-4.2589,-4.2631,-4.2646,-4.2658,-4.2666,-4.2702,-4.272,-4.2528,-4.2528,-4.2528,0,0,-4.2614,-4.2595,-4.2611,-4.2614,-4.2605,-4.2629,-4.2551,-4.2578,-4.2595,-4.252,-4.256,-4.2545,-4.2535,-4.2592,-4.2616,-4.2583,-4.2719,-4.2669,-4.2679,-4.268,-4.2712,-4.273,-4.2746,-4.2533,-4.2532,-4.2531,0,0,-4.2733,-4.2722,-4.2765,-4.2758,-4.2746,-4.2719,-4.273,-4.2705,-4.2692,-4.2732,-4.2676,-4.2696,-4.2723,-4.2718,-4.2719,-4.284,-4.2795,-4.2846,-4.2923,-4.2958,-4.2973,-4.2987,-4.3028,-4.3044,-4.2854,-4.2855,-4.2855,0,-4.2808,-4.284,-4.2793,-4.2825,-4.2828,-4.2762,-4.2806,-4.2802,-4.2794,-4.2798,-4.2762,-4.2795,-4.2784,-4.2838,-4.2868,-4.2872,-4.2882,-4.2846,-4.2975,-4.2988,-4.2999,-4.3039,-4.3055,-4.2861,-4.286,-4.2859,-4.2859,0,-4.2933,-4.2957,-4.2994,-4.2988,-4.2996,-4.3034,-4.2993,-4.3007,-4.2975,-4.2952,-4.2994,-4.2978,-4.2986,-4.2997,-4.2965,-4.3048,-4.3028,-4.2985,-4.2919,-4.3024,-4.306,-4.3075,-4.2869,-4.2867,-4.2865,-4.2864,0,0,-4.3112,-4.3081,-4.3095,-4.3091,-4.3074,-4.3091,-4.3128,-4.3135,-4.3147,-4.3146,-4.3174,-4.32,-4.316,-4.3162,-4.3129,-4.3161,-4.3256,-4.3113,-4.3112,-4.3139,-4.3345,-4.3376,-4.3394,-4.3228,-4.3231,-4.3233,-4.3346,0,-4.3224,-4.3282,-4.3242,-4.3307,-4.3328,-4.3267,-4.3298,-4.3291,-4.3272,-4.3288,-4.3266,-4.3285,-4.3232,-4.3232,-4.326,-4.3238,-4.3296,-4.323,-4.3253,-4.3255,-4.3255,-4.3413,-4.3446,-4.3553,-4.3359,-4.3362,-4.3364,0,-4.3362,-4.3366,-4.3433,-4.3412,-4.3419,-4.3448,-4.3452,-4.3468,-4.346,-4.3444,-4.3446,-4.3407,-4.3441,-4.338,-4.3426,-4.3382,-4.339,-4.3381,-4.3384,-4.3383,-4.3314,-4.3414,-4.3586,-4.3602,-4.3386,-4.3384,-4.3382,0,-4.3484,-4.3506,-4.3549,-4.3548,-4.3525,-4.3547,-4.3538,-4.3527,-4.3534,-4.3538,-4.3542,-4.3551,-4.3556,-4.3564,-4.3528,-4.3486,-4.3579,-4.3515,-4.3566,-4.3567,-4.3586,-4.3585,-4.376,-4.3595,-4.3595,-4.3595,-4.3595,0,-4.3612,-4.3655,-4.3603,-4.3629,-4.3677,-4.3631,-4.3679,-4.3664,-4.3655,-4.3678,-4.3627,-4.3649,-4.3601,-4.362,-4.3592,-4.3635,-4.3638,-4.3625,-4.3617,-4.3629,-4.363,-4.3631,-4.3622,-4.3599,-4.3598,-4.3597,-4.3597,0,-4.3754,-4.3721,-4.3764,-4.3739,-4.3734,-4.377,-4.3749,-4.3772,-4.3751,-4.378,-4.3785,-4.375,-4.3769,-4.3735,-4.3749,-4.3731,-4.379,-4.3772,-4.3793,-4.3786,-4.3839,-4.3834,-4.4019,-4.4041,-4.3865,-4.3866,-4.3868,0,-4.3837,-4.3869,-4.3848,-4.3859,-4.3853,-4.3873,-4.388,-4.3838,-4.3848,-4.3842,-4.3866,-4.3881,-4.389,-4.3923,-4.39,-4.3911,-4.3891,-4.3955,-4.3892,-4.3903,-4.389,-4.3888,-4.3891,-4.3967,-4.397,-4.3971,-4.3973,0,-4.3987,-4.397,-4.3982,-4.3989,-4.3999,-4.4003,-4.4003,-4.4016,-4.3971,-4.3985,-4.4004,-4.4011,-4.4026,-4.4041,-4.4047,-4.4039,-4.3999,-4.3993,-4.4005,-4.4016,-4.4027,-4.402,-4.3826,-4.3988,-4.3987,-4.3986,-4.3985,-4.3984,-4.4101,-4.4126,-4.4115,-4.4131,-4.4127,-4.4129,-4.415,-4.4131,-4.4145,-4.4154,-4.4129,-4.4153,-4.4146,-4.4149,-4.4146,-4.4165,-4.4137,-4.4155,-4.4159,-4.4164,-4.4171,-4.4026,-4.4166,-4.4166,-4.4165,-4.4165,-4.4165,0,-4.4247,-4.4237,-4.4252,-4.4254,-4.4267,-4.4229,-4.4227,-4.4241,-4.4263,-4.4259,-4.4269,-4.4291,-4.4306,-4.4285,-4.4296,-4.4316,-4.4298,-4.432,-4.4317,-4.4316,-4.4197,-4.4184,-4.4334,-4.4334,-4.4334,-4.4334,-4.4334,-4.4334,-4.4324,-4.4365,-4.4347,-4.4386,-4.4376,-4.4399,-4.4402,-4.4403,-4.44,-4.4426,-4.4438,-4.4425,-4.4414,-4.4425,-4.4437,-4.443,-4.4436,-4.4465,-4.4452,-4.4341,-4.4324,-4.4308,-4.4296,-4.4467,-4.4467,-4.4569,-4.457,-4.4571]},{"header":{"parameterUnit":"m.s-1","parameterCategory":1,"la1":30.2991,"la2":30.254,"lo1":-89.0895,"lo2":-89.0444,"dy":0.0017,"dx":0.0017,"nx":28,"ny":28,"refTime":"2023-08-20T21:00:00:Z","depth":0,"parameterNumber":3,"parameterNumberName":"V-component_of_WINDS"},"data":[0,0,0,0,0,0,0,0,0,0,0,0,0,0,0,0,0,0,0,0,0,0,0,0,0,0,0,0,0,0,0,0,0,0,0,0,0,0,0,0,0,0,0,0,0,0,0,0,0,0,0,0,0,0,0,0,0,0,2.909,2.909,0,2.913,2.9131,2.9131,2.9156,2.9156,2.9156,2.9156,2.9194,2.9195,2.9196,0,0,0,0,0,0,0,0,0,0,0,0,0,2.9031,2.9032,2.909,2.909,2.9091,2.913,2.9131,2.9131,2.9156,2.9156,2.9156,2.9156,2.9194,2.9195,2.9196,0,0,0,0,0,0,0,0,0,0,0,0,0,2.9062,2.9032,2.9089,2.9108,2.911,2.913,2.9131,2.9131,2.9156,2.9156,2.9156,2.9156,2.9193,2.9195,2.9196,2.92,0,0,2.92,2.92,0,0,0,0,0,0,0,0,2.906,2.9064,2.9104,2.9106,2.9109,2.9138,2.9124,2.9154,2.9156,2.9138,2.9156,2.9156,2.9175,2.9178,2.9185,2.9202,2.9203,2.92,2.9201,2.9201,2.9202,0,0,0,0,0,0,0,2.9058,2.9063,2.9105,2.9105,2.9108,2.9113,2.9118,2.913,2.9155,2.914,2.9142,2.9146,2.9176,2.9184,2.9186,2.9204,2.92,2.9201,2.9202,2.9203,2.9228,2.9227,0,0,0,0,0,0,2.9054,2.9061,2.9104,2.9107,2.9085,2.9114,2.9119,2.9128,2.9155,2.9159,2.9146,2.9147,2.9181,2.9184,2.9187,2.9195,2.9201,2.9203,2.9203,2.9228,2.9228,2.9227,0,0,0,0,0,0,2.9052,2.9057,2.9103,2.9084,2.9091,2.9115,2.9125,2.9129,2.9137,2.916,2.9164,2.9149,2.9181,2.9185,2.9197,2.9196,2.9203,2.9204,2.9228,2.9228,2.9227,2.9209,0,0,0,0,0,0,2.905,2.9057,2.9059,2.9084,2.9091,2.9112,2.9125,2.913,2.9139,2.9141,2.9164,2.9167,2.9182,2.9195,2.9199,2.9198,2.9205,2.9228,2.9228,2.9227,2.921,2.9208,2.9207,0,0,0,0,0,2.9048,2.9051,2.9059,2.9064,2.9095,2.9112,2.9116,2.9134,2.9139,2.9141,2.9156,2.9167,2.9196,2.9196,2.92,2.92,2.9228,2.9228,2.9228,2.921,2.9208,2.9207,0,0,0,0,0,0,2.9023,2.9054,2.9064,2.9075,2.9091,2.9116,2.912,2.9131,2.9145,2.9146,2.9166,2.9171,2.9181,2.9192,2.9191,2.9206,2.9213,2.9214,2.9199,2.9197,2.9196,2.9193,2.9207,0,0,0,0,0,2.9019,2.9032,2.9058,2.9065,2.9073,2.9095,2.9103,2.9116,2.9133,2.9139,2.9155,2.917,2.9183,2.9191,2.9203,2.9212,2.9217,2.9214,2.9212,2.9211,2.9211,2.9217,2.9216,2.9226,2.9226,2.9226,0,0,2.901,2.9029,2.9035,2.9061,2.9075,2.9087,2.91,2.9112,2.9121,2.914,2.9153,2.9165,2.9184,2.9194,2.9199,2.9203,2.921,2.9211,2.9209,2.921,2.9217,2.9216,2.9215,2.9226,2.9226,2.9226,0,0,2.9,2.9016,2.9024,2.9039,2.906,2.9075,2.9077,2.9102,2.9111,2.9125,2.914,2.915,2.9171,2.9184,2.9194,2.9191,2.9201,2.9194,2.9186,2.9192,2.9191,2.9191,2.919,2.9189,2.9194,2.9194,2.9194,0,2.8986,2.9006,2.9027,2.9038,2.9049,2.9069,2.9078,2.909,2.9114,2.9121,2.9125,2.9154,2.9167,2.9181,2.9181,2.9188,2.919,2.9192,2.919,2.9189,2.9189,2.9189,2.9188,2.9193,2.9193,2.9194,2.9194,0,2.8988,2.9002,2.9006,2.9031,2.9042,2.9051,2.9073,2.9082,2.9094,2.9108,2.9122,2.9139,2.9157,2.9161,2.9171,2.9177,2.9179,2.9186,2.9194,2.9187,2.9187,2.9187,2.9192,2.9192,2.9193,2.9193,0,0,2.8962,2.9,2.9001,2.9014,2.904,2.905,2.9061,2.908,2.9087,2.9103,2.9113,2.9131,2.9139,2.915,2.9162,2.9167,2.9165,2.9174,2.9175,2.9172,2.9172,2.9166,2.9166,2.9172,2.9172,2.9172,2.917,0,2.8956,2.8979,2.8998,2.9013,2.9026,2.9046,2.9055,2.9072,2.9086,2.9098,2.9113,2.9127,2.9136,2.9142,2.9148,2.9164,2.9165,2.9164,2.918,2.9181,2.9175,2.9165,2.9159,2.9157,2.917,2.9171,2.9171,0,2.8952,2.897,2.8986,2.9013,2.9019,2.9028,2.9047,2.9059,2.9078,2.9088,2.9101,2.9115,2.9127,2.9133,2.915,2.9149,2.9157,2.9166,2.9166,2.9168,2.9175,2.9167,2.9156,2.9156,2.9171,2.9171,2.9171,0,2.8933,2.896,2.8974,2.8984,2.9015,2.902,2.9033,2.9053,2.9064,2.908,2.9087,2.9104,2.9114,2.9126,2.9144,2.9147,2.9159,2.9167,2.9168,2.9167,2.9169,2.9168,2.9159,2.9174,2.9174,2.9174,2.9174,0,2.8924,2.8933,2.8966,2.8974,2.8985,2.9008,2.9018,2.9032,2.905,2.9062,2.9079,2.9089,2.9112,2.9125,2.9139,2.9151,2.9155,2.9163,2.9166,2.9161,2.916,2.9167,2.9167,2.9174,2.9174,2.9174,2.9174,0,2.8904,2.8926,2.8942,2.8971,2.8979,2.8986,2.901,2.9019,2.9035,2.9048,2.9053,2.9077,2.9093,2.9112,2.9134,2.9143,2.9154,2.9159,2.9148,2.915,2.9149,2.9149,2.9144,2.9144,2.9158,2.9158,2.9158,0,2.8897,2.8905,2.8935,2.8945,2.8958,2.8973,2.8985,2.9007,2.9018,2.9042,2.9048,2.9066,2.9081,2.9105,2.9124,2.914,2.9146,2.9143,2.9149,2.9144,2.9147,2.9146,2.9147,2.9142,2.9142,2.9141,2.9141,0,2.8882,2.8894,2.891,2.8931,2.8945,2.8962,2.8979,2.8986,2.9012,2.9023,2.9041,2.9053,2.9076,2.9093,2.9113,2.9125,2.9137,2.914,2.9141,2.9135,2.9129,2.9133,2.9144,2.9139,2.9139,2.914,2.914,2.914,2.8869,2.8877,2.8901,2.8919,2.8935,2.8952,2.8962,2.898,2.8995,2.9017,2.9029,2.9046,2.9067,2.9095,2.9107,2.912,2.9124,2.9125,2.9126,2.9126,2.9125,2.9127,2.9123,2.9123,2.9123,2.9124,2.9124,0,2.8856,2.8873,2.8889,2.8914,2.8929,2.8941,2.8962,2.8973,2.8988,2.9007,2.9022,2.9042,2.906,2.9081,2.9099,2.9106,2.9112,2.911,2.9109,2.9112,2.9119,2.9117,2.9105,2.9105,2.9105,2.9105,2.9105,2.9105,2.8851,2.8866,2.888,2.8904,2.8921,2.8939,2.895,2.8965,2.898,2.9003,2.9018,2.9032,2.9052,2.9072,2.9089,2.9094,2.91,2.9096,2.9104,2.911,2.9111,2.9113,2.9111,2.9097,2.9097,2.9096,2.9095,2.9095]}]]